THORAD AGENA D DEB, 19363

Orbit data source: Space-Track

THORAD AGENA D DEB, 19363 is space debris in SSO originally from a launch on Wed, 08 Apr 1970 UTC launched from the Air Force Western Test Range (AFWTR). Debris objects in space refer to the collection of defunct objects orbiting the Earth. Examples of debris include non-operational satellites, rocket bodies, and fragments generated from explosions, collisions, or faulty payload assembly.

Loading next visibility...
Identifier
19363, 1970-025PY
Orbit
SSO
Country
Flag of USUS
Related business
Manufacturer
Unknown
Mission
Spacecraft
Bus & Motor
Unknown
Mass
Unknown
Launch date (UTC)
1970-04-08 (56 years ago)
Launch vehicle
Unknown
Launch site
Air Force Western Test Range (AFWTR)
Object type
Payload
Rocket body
Debris
Shape & HBR
Unknown shape, 0.1 m
Radar Cross Section
Small (<0.1 m²)

Expand to show TLE details & history
Last TLE update: 18 hours ago

TLE from 18 hours ago
0 THORAD AGENA D DEB
1 19363U 70025PY  25352.84574622  .00000238  00000-0  36783-3 0  9994
2 19363 100.0061 118.7854 0005360 129.4115  22.5311 13.62307726672313
Epoch: 2025-12-18T20:17Z
TLE epoch observation values (Epoch: 2025-12-18T20:17:52.473Z)
Latitude
27.6119°
Longitude
-88.11097°
Altitude
1,026.926 km
Speed
7.343 km/s
True Right ascension
20h 16m 12s
True Declination
27° 28' 34"
Sunlit
Object was in daylight at epoch
Visualization orbit readout
Latitude
Unknown
Longitude
Unknown
Altitude
Unknown
Speed
Unknown
Apparent Right ascension
Unknown
Apparent Declination
Unknown
Sunlit
N/A
Visualization observer readout
Local Sidereal Time
13:17:50
Azimuth
Unknown
Elevation
Unknown
Doppler factor
Unknown
Orbital elements
Apogee altitude
1,028.586 km
Perigee altitude
1,020.65 km
Semi-major axis
7,402.755 km
Eccentricity
0.00054
Inclination
100.0061°
RAAN
118.7854°
Arg. of periapsis
129.4115°
True anomaly
22.55465°
Mean anomaly
22.5311°
Eccentric anomaly
22.54287°
Mean motion
3.40764 °/min
Orbital period
105.65 mins
BSTAR
0.00036783
Loading maneuver chart data...
Computing Atmospheric mass density...

Documentation

Showing up to 5 results
|